Simultaneous Nadir Overpasses (SNOs) Predictions

Prediction of SNOs between GOES-16 and METOP-C Satellite Orbit:

Table of predicted SNOs for the next 14.0 days since TLE Epoch: 3/23/2024
Index Date Time (GOES-16) GOES-16 Lat,Lon METOP-C Lat,Lon Distance(km) Time Diff (sec)
1 03/24/2024 02:42:09 -0.04, -75.20 -0.59, -77.75 289.35 80
2 03/25/2024 02:18:49 -0.04, -75.21 0.49, -72.74 280.65 80
3 03/26/2024 14:37:40 0.04, -75.24 0.53, -77.30 236.01 80
4 03/27/2024 14:19:40 0.04, -75.25 -0.62, -72.31 334.35 80
5 03/29/2024 02:38:39 -0.04, -75.25 -0.42, -76.90 188.88 80
6 03/30/2024 02:15:19 -0.04, -75.26 0.74, -71.91 381.44 80
7 03/31/2024 14:34:11 0.03, -75.29 0.27, -76.48 135.13 80
8 04/01/2024 14:16:10 0.03, -75.30 -0.83, -71.48 435.37 80
9 04/03/2024 02:35:08 -0.03, -75.30 -0.18, -76.07 87.39 80
10 04/04/2024 02:11:48 -0.02, -75.31 0.93, -71.07 483.37 80
11 04/05/2024 14:30:39 0.02, -75.35 0.06, -75.64 32.35 80
